DEMHO EDLW-EDDG

Flight info

Callsign DEMHO
Flight time 0h 46m
Altitude
Route DCT N
Aircraft C172

Departure

Time 2026-04-30 18:57
Airport Dortmund Airport (EDLW)

Arrival

Time 2026-04-30 19:43
Airport Münster Osnabrück Airport (EDDG)
Time Latitude Longitude Altitude Speed Heading
2026-04-30 18:50 51.51219 7.60460 457 ft 0 kts 197°
2026-04-30 18:51 51.51218 7.60459 457 ft 2 kts 196°
2026-04-30 18:52 51.51184 7.60342 457 ft 20 kts 245°
2026-04-30 18:52 51.51165 7.60158 454 ft 17 kts 333°
2026-04-30 18:52 51.51207 7.60438 458 ft 16 kts 242°
2026-04-30 18:52 51.51154 7.60168 455 ft 13 kts 315°
2026-04-30 18:53 51.51229 7.60260 439 ft 20 kts 62°
2026-04-30 18:53 51.51298 7.60449 432 ft 20 kts 60°
2026-04-30 18:53 51.51369 7.60648 438 ft 21 kts 63°
2026-04-30 18:53 51.51432 7.60871 427 ft 23 kts 73°
2026-04-30 18:54 51.51516 7.61057 423 ft 17 kts 24°
2026-04-30 18:54 51.51564 7.60951 423 ft 14 kts 260°
2026-04-30 18:54 51.51540 7.60796 416 ft 15 kts 254°
2026-04-30 18:54 51.51527 7.60710 417 ft 4 kts 261°
2026-04-30 18:55 51.51527 7.60677 416 ft 0 kts 285°
2026-04-30 18:55 51.51550 7.60622 415 ft 8 kts 324°
2026-04-30 18:55 51.51621 7.60632 416 ft 13 kts 60°
2026-04-30 18:56 51.51970 7.61559 474 ft 76 kts 61°
2026-04-30 18:56 51.52381 7.62146 691 ft 80 kts 37°
2026-04-30 18:56 51.52956 7.62277 751 ft 94 kts
2026-04-30 18:57 51.54253 7.62047 1112 ft 104 kts 352°
2026-04-30 18:57 51.54970 7.61742 1183 ft 115 kts 357°
2026-04-30 18:57 51.55738 7.61509 1351 ft 113 kts 357°
2026-04-30 18:58 51.57327 7.61022 1621 ft 119 kts 359°
2026-04-30 18:58 51.58135 7.60836 1829 ft 113 kts
2026-04-30 18:58 51.58904 7.60897 2028 ft 107 kts 21°
2026-04-30 18:59 51.60510 7.61129 2186 ft 123 kts 16°
2026-04-30 19:00 51.63117 7.61365 2326 ft 124 kts 26°
2026-04-30 19:00 51.63927 7.61812 2320 ft 124 kts 30°
2026-04-30 19:00 51.65570 7.62724 2284 ft 125 kts 30°
2026-04-30 19:01 51.67214 7.63671 2300 ft 126 kts 31°
2026-04-30 19:01 51.68027 7.64125 2378 ft 122 kts 30°
2026-04-30 19:02 51.69642 7.64965 2412 ft 122 kts 24°
2026-04-30 19:02 51.71286 7.65069 2409 ft 123 kts 358°
2026-04-30 19:03 51.72981 7.64555 2509 ft 131 kts 359°
2026-04-30 19:03 51.74834 7.64028 2519 ft 137 kts 359°
2026-04-30 19:04 51.76685 7.63099 2517 ft 146 kts 336°
2026-04-30 19:04 51.78436 7.61460 2518 ft 145 kts 336°
2026-04-30 19:05 51.80151 7.59862 2496 ft 138 kts 342°
2026-04-30 19:05 51.81857 7.58544 2503 ft 136 kts 345°
2026-04-30 19:06 51.83562 7.57408 2505 ft 129 kts 353°
2026-04-30 19:06 51.84408 7.56944 2508 ft 127 kts 354°
2026-04-30 19:06 51.86083 7.56179 2512 ft 125 kts 360°
2026-04-30 19:07 51.87785 7.55516 2516 ft 126 kts 359°
2026-04-30 19:07 51.88636 7.55191 2517 ft 125 kts 359°
2026-04-30 19:08 51.90341 7.54637 2513 ft 125 kts
2026-04-30 19:08 51.92093 7.54264 2520 ft 128 kts
2026-04-30 19:08 51.92970 7.54079 2520 ft 126 kts
2026-04-30 19:09 51.94634 7.54150 2519 ft 119 kts 17°
2026-04-30 19:09 51.95462 7.54224 2525 ft 119 kts 17°
2026-04-30 19:09 51.96274 7.54341 2524 ft 117 kts 19°
2026-04-30 19:10 51.97825 7.54799 2523 ft 112 kts 27°
2026-04-30 19:10 51.99266 7.55604 2526 ft 107 kts 46°
2026-04-30 19:11 51.99918 7.56222 2417 ft 107 kts 45°
2026-04-30 19:11 52.01187 7.57477 2218 ft 107 kts 45°
2026-04-30 19:11 52.01809 7.58085 2114 ft 103 kts 43°
2026-04-30 19:12 52.02433 7.58652 2026 ft 102 kts 43°
2026-04-30 19:12 52.03020 7.59230 2020 ft 96 kts 49°
2026-04-30 19:12 52.03584 7.59796 2020 ft 95 kts 43°
2026-04-30 19:13 52.04756 7.60777 1950 ft 98 kts 43°
2026-04-30 19:13 52.05977 7.61915 1752 ft 103 kts 43°
2026-04-30 19:13 52.06592 7.62505 1667 ft 102 kts 44°
2026-04-30 19:14 52.07209 7.63076 1576 ft 105 kts 44°
2026-04-30 19:14 52.07830 7.63692 1529 ft 104 kts 44°
2026-04-30 19:14 52.08434 7.64342 1453 ft 103 kts 48°
2026-04-30 19:14 52.08992 7.65041 1421 ft 100 kts 49°
2026-04-30 19:15 52.09550 7.65741 1319 ft 100 kts 49°
2026-04-30 19:15 52.10579 7.67135 1214 ft 94 kts 59°
2026-04-30 19:15 52.10972 7.67913 1207 ft 84 kts 66°
2026-04-30 19:16 52.11310 7.68684 1175 ft 82 kts 66°
2026-04-30 19:16 52.11617 7.69459 1145 ft 84 kts 68°
2026-04-30 19:16 52.12179 7.71214 1065 ft 87 kts 72°
2026-04-30 19:17 52.12444 7.72131 980 ft 92 kts 72°
2026-04-30 19:17 52.13556 7.72996 855 ft 113 kts 345°
2026-04-30 19:17 52.14173 7.72274 828 ft 111 kts 294°
2026-04-30 19:18 52.13919 7.70564 394 ft 121 kts 249°
2026-04-30 19:18 52.13489 7.68649 167 ft 92 kts 248°
2026-04-30 19:18 52.13265 7.67575 326 ft 103 kts 250°
2026-04-30 19:19 52.12973 7.66554 598 ft 101 kts 227°
2026-04-30 19:19 52.12413 7.66156 843 ft 89 kts 159°
2026-04-30 19:19 52.11420 7.67121 1250 ft 87 kts 85°
2026-04-30 19:20 52.11727 7.68049 1304 ft 99 kts 69°
2026-04-30 19:20 52.12076 7.69022 1289 ft 99 kts 69°
2026-04-30 19:20 52.12694 7.70834 1015 ft 87 kts 69°
2026-04-30 19:21 52.12963 7.71739 812 ft 91 kts 58°
2026-04-30 19:21 52.14021 7.71162 498 ft 103 kts 271°
2026-04-30 19:22 52.13585 7.69054 162 ft 80 kts 251°
2026-04-30 19:22 52.12924 7.65831 666 ft 101 kts 243°
2026-04-30 19:23 52.11504 7.63748 1188 ft 92 kts 150°
2026-04-30 19:24 52.10933 7.65124 1263 ft 97 kts 76°
2026-04-30 19:24 52.11103 7.65767 1303 ft 91 kts 74°
2026-04-30 19:24 52.11717 7.67564 1331 ft 91 kts 71°
2026-04-30 19:25 52.12863 7.70239 1300 ft 98 kts 65°
2026-04-30 19:26 52.13384 7.72288 907 ft 95 kts 64°
2026-04-30 19:26 52.14276 7.71744 531 ft 117 kts 252°
2026-04-30 19:26 52.13888 7.70487 359 ft 127 kts 248°
2026-04-30 19:27 52.13339 7.67830 758 ft 119 kts 249°
2026-04-30 19:27 52.12773 7.65380 1148 ft 114 kts 218°
2026-04-30 19:28 52.12101 7.64971 1321 ft 92 kts 158°
2026-04-30 19:28 52.10962 7.65867 1582 ft 92 kts 146°
2026-04-30 19:29 52.09861 7.66872 1804 ft 90 kts 111°
2026-04-30 19:29 52.10020 7.67878 1910 ft 98 kts 72°
2026-04-30 19:30 52.10921 7.70993 2191 ft 102 kts 73°
2026-04-30 19:30 52.11477 7.72771 2468 ft 77 kts 74°
2026-04-30 19:31 52.11959 7.73983 2654 ft 54 kts 72°
2026-04-30 19:31 52.12204 7.74545 2665 ft 73 kts 72°
2026-04-30 19:31 52.12843 7.76354 2706 ft 89 kts 73°
2026-04-30 19:32 52.13150 7.77258 2826 ft 92 kts 74°
2026-04-30 19:32 52.13449 7.78168 2947 ft 95 kts 75°
2026-04-30 19:32 52.13754 7.79178 2955 ft 103 kts 76°
2026-04-30 19:32 52.14060 7.80270 2950 ft 108 kts 77°
2026-04-30 19:33 52.14275 7.81433 2948 ft 107 kts 83°
2026-04-30 19:33 52.14471 7.82606 2947 ft 107 kts 83°
2026-04-30 19:33 52.14660 7.83755 2945 ft 106 kts 83°
2026-04-30 19:33 52.14853 7.84916 2944 ft 106 kts 84°
2026-04-30 19:34 52.15049 7.86062 2947 ft 105 kts 84°
2026-04-30 19:34 52.15250 7.87208 2945 ft 104 kts 83°
2026-04-30 19:34 52.15644 7.89463 2934 ft 104 kts 83°
2026-04-30 19:35 52.15838 7.90614 2935 ft 107 kts 83°
2026-04-30 19:35 52.16020 7.91785 2936 ft 107 kts 84°
2026-04-30 19:35 52.16204 7.92956 2937 ft 106 kts 84°
2026-04-30 19:35 52.16399 7.94120 2937 ft 107 kts 83°
2026-04-30 19:36 52.16590 7.95286 2937 ft 109 kts 83°
2026-04-30 19:36 52.16783 7.96479 2936 ft 109 kts 84°
2026-04-30 19:36 52.17163 7.98844 2936 ft 105 kts 84°
2026-04-30 19:37 52.17563 7.99869 2928 ft 122 kts 39°
2026-04-30 19:37 52.18458 7.99841 2926 ft 143 kts 339°
2026-04-30 19:37 52.19057 7.98568 2930 ft 145 kts 285°
2026-04-30 19:37 52.19332 7.96983 2940 ft 146 kts 283°
2026-04-30 19:38 52.19319 7.95373 2933 ft 140 kts 251°
2026-04-30 19:38 52.19115 7.93813 2938 ft 141 kts 250°
2026-04-30 19:38 52.18751 7.92418 2939 ft 130 kts 225°
2026-04-30 19:38 52.18262 7.91187 2938 ft 131 kts 234°
2026-04-30 19:39 52.18024 7.89709 2928 ft 138 kts 241°
2026-04-30 19:39 52.17729 7.88218 2913 ft 141 kts 248°
2026-04-30 19:39 52.17421 7.86739 2935 ft 136 kts 235°
2026-04-30 19:39 52.17054 7.85234 2762 ft 150 kts 246°
2026-04-30 19:40 52.16774 7.83587 2518 ft 145 kts 245°
2026-04-30 19:40 52.16525 7.82131 2310 ft 128 kts 245°
2026-04-30 19:40 52.16213 7.80825 2049 ft 119 kts 236°
2026-04-30 19:40 52.15880 7.79604 1767 ft 119 kts 239°
2026-04-30 19:41 52.15576 7.78232 1326 ft 132 kts 244°
2026-04-30 19:41 52.15300 7.76916 1143 ft 113 kts 246°
2026-04-30 19:41 52.15053 7.75736 910 ft 102 kts 245°
2026-04-30 19:41 52.14816 7.74758 757 ft 91 kts 248°
2026-04-30 19:42 52.14604 7.73773 632 ft 92 kts 250°
2026-04-30 19:42 52.14383 7.72795 527 ft 92 kts 255°
2026-04-30 19:42 52.14176 7.71878 409 ft 86 kts 246°
2026-04-30 19:42 52.13987 7.71004 294 ft 80 kts 257°
2026-04-30 19:43 52.13815 7.70165 213 ft 75 kts 255°
2026-04-30 19:43 52.13655 7.69381 163 ft 65 kts 253°
2026-04-30 19:43 52.13545 7.68836 161 ft 44 kts 249°
2026-04-30 19:44 52.13346 7.68270 163 ft 11 kts 163°
2026-04-30 19:44 52.13293 7.68298 162 ft 6 kts 160°
2026-04-30 19:44 52.13247 7.68323 161 ft 8 kts 162°
2026-04-30 19:44 52.13195 7.68354 160 ft 9 kts 160°
2026-04-30 19:45 52.13154 7.68336 160 ft 5 kts 248°
2026-04-30 19:45 52.13154 7.68317 160 ft 0 kts 273°